sat.trackr.live / text

‹ back to catalog

STARLINK-6131

NORAD 57107 · 2023-090G

PAYLOAD ACTIVE UNKNOWN

§ Identity

Operator
Country
US
Launch date
2023-06-23
Launch site
AFETR
Launch vehicle
Mass (kg)
RCS (m²)

Purposes: comms

External: N2YO · Heavens-Above · Gunter

§ Orbital elements

Epoch: 2026-09-20T11:07:00.842880Z

Period
94.27 min
Inclination
43.0031°
Eccentricity
0.0001648
Mean motion
15.27576746 rev/d
Perigee alt
481.9 km
Apogee alt
484.2 km
Semi-major
6,861.2 km
B*
2.1599e-5
RAAN
261.3030°
Arg perigee
267.5774°
Mean anomaly
92.4888°
Rev number
18,012

§ Raw data

STARLINK-61311 57107U 23090G   26263.46320420  .00000332  00000+0  21599-4 0  99912 57107  43.0031 261.3030 0001648 267.5774  92.4888 15.27576746180126

JSON: /api/v1/satellites/57107 · /tle

For live sub-satellite position, see the globe view (requires WebGL).

§ Visibility from observer

Set your observer location to see the next 7 days of passes ≥ 10°. The values pass through the URL so the page stays shareable.

No JS? Fill the form by hand. The geolocation button needs JavaScript.